• In Czech Republic
  • List of Countries
  • For 7 days
  • Water Temperature
  • Satellite Maps
  • Weather Map
  • Weather Widgets
  • user-avatar
    Login

    Hourly Weather Pantelimon

    Today, 24 October, Wednesday

    Time Temperature Precipitation Wind Pressure Humidity
    00:00 +12°C° 0 mm 5 mps 751 mmHg 60%
    01:00 +11°C° 0 mm 6 mps 750 mmHg 63%
    02:00 +11°C° 0 mm 6 mps 750 mmHg 66%
    03:00 +10°C° 0 mm 6 mps 749 mmHg 66%
    04:00 +10°C° 0 mm 6 mps 748 mmHg 66%
    05:00 +10°C° 0 mm 7 mps 748 mmHg 66%
    06:00 +10°C° 0 mm 7 mps 747 mmHg 63%
    07:00 +11°C° 0 mm 8 mps 747 mmHg 60%
    08:00 +11°C° 0 mm 8 mps 746 mmHg 57%
    09:00 +12°C° 0 mm 9 mps 745 mmHg 53%
    10:00 +15°C° 0 mm 9 mps 745 mmHg 49%
    11:00 +16°C° 0 mm 10 mps 744 mmHg 45%
    12:00 +17°C° 0 mm 11 mps 743 mmHg 42%
    13:00 +18°C° 0 mm 11 mps 742 mmHg 38%
    14:00 +19°C° 0 mm 12 mps 742 mmHg 35%
    15:00 +18°C° 0 mm 11 mps 742 mmHg 36%
    16:00 +17°C° 0 mm 11 mps 742 mmHg 38%
    17:00 +16°C° 0 mm 11 mps 741 mmHg 40%
    18:00 +13°C° 0.1 mm 10 mps 743 mmHg 39%
    19:00 +12°C° 0.1 mm 9 mps 744 mmHg 38%
    20:00 +10°C° 0.1 mm 7 mps 745 mmHg 38%
    21:00 +9°C° 0 mm 7 mps 746 mmHg 37%
    22:00 +8°C° 0 mm 6 mps 747 mmHg 37%
    23:00 +8°C° 0 mm 5 mps 747 mmHg 37%

    Tomorrow, 25 October, Thursday

    Time Temperature Precipitation Wind Pressure Humidity
    00:00 +7°C° 0 mm 5 mps 748 mmHg 37%
    01:00 +7°C° 0 mm 5 mps 749 mmHg 38%
    02:00 +6°C° 0 mm 5 mps 749 mmHg 39%
    03:00 +6°C° 0 mm 5 mps 749 mmHg 40%
    04:00 +6°C° 0 mm 5 mps 750 mmHg 41%
    05:00 +5°C° 0 mm 5 mps 750 mmHg 42%
    06:00 +5°C° 0 mm 5 mps 751 mmHg 41%
    07:00 +6°C° 0 mm 5 mps 751 mmHg 41%
    08:00 +6°C° 0 mm 5 mps 752 mmHg 41%
    09:00 +7°C° 0 mm 5 mps 752 mmHg 37%
    10:00 +9°C° 0 mm 5 mps 753 mmHg 34%
    11:00 +10°C° 0 mm 5 mps 753 mmHg 30%
    12:00 +12°C° 0 mm 5 mps 753 mmHg 28%
    13:00 +13°C° 0 mm 5 mps 753 mmHg 27%
    14:00 +13°C° 0 mm 6 mps 752 mmHg 25%
    15:00 +13°C° 0 mm 6 mps 752 mmHg 25%
    16:00 +12°C° 0 mm 5 mps 752 mmHg 26%
    17:00 +12°C° 0 mm 5 mps 752 mmHg 27%
    18:00 +10°C° 0 mm 5 mps 752 mmHg 29%
    19:00 +10°C° 0 mm 5 mps 752 mmHg 32%
    20:00 +9°C° 0 mm 5 mps 752 mmHg 34%
    21:00 +9°C° 0 mm 5 mps 752 mmHg 38%
    22:00 +8°C° 0 mm 5 mps 752 mmHg 42%
    23:00 +8°C° 0 mm 5 mps 752 mmHg 46%

    Day after tomorrow, 26 October, Friday

    Time Temperature Precipitation Wind Pressure Humidity
    00:00 +8°C° 0 mm 5 mps 752 mmHg 50%
    01:00 +8°C° 0 mm 5 mps 752 mmHg 54%
    02:00 +8°C° 0 mm 5 mps 752 mmHg 59%
    03:00 +8°C° 0 mm 4 mps 752 mmHg 61%
    04:00 +8°C° 0 mm 4 mps 752 mmHg 64%
    05:00 +8°C° 0 mm 4 mps 752 mmHg 66%
    06:00 +10°C° 0 mm 3 mps 752 mmHg 66%
    07:00 +10°C° 0 mm 3 mps 753 mmHg 66%
    08:00 +10°C° 0 mm 3 mps 753 mmHg 66%
    09:00 +12°C° 0 mm 3 mps 754 mmHg 59%
    10:00 +14°C° 0 mm 3 mps 754 mmHg 53%
    11:00 +17°C° 0 mm 3 mps 754 mmHg 46%
    12:00 +18°C° 0 mm 3 mps 754 mmHg 43%
    13:00 +19°C° 0 mm 4 mps 754 mmHg 40%
    14:00 +20°C° 0 mm 4 mps 753 mmHg 36%
    15:00 +19°C° 0 mm 3 mps 753 mmHg 39%
    16:00 +19°C° 0 mm 2 mps 753 mmHg 41%
    17:00 +18°C° 0 mm 2 mps 753 mmHg 43%
    18:00 +17°C° 0 mm 2 mps 753 mmHg 45%
    19:00 +16°C° 0 mm 2 mps 754 mmHg 48%
    20:00 +15°C° 0 mm 2 mps 754 mmHg 51%
    21:00 +15°C° 0 mm 2 mps 754 mmHg 52%
    22:00 +15°C° 0 mm 2 mps 754 mmHg 53%
    23:00 +14°C° 0 mm 2 mps 754 mmHg 55%

    27 October, Saturday

    Time Temperature Precipitation Wind Pressure Humidity
    00:00 +14°C° 0 mm 2 mps 754 mmHg 55%
    01:00 +14°C° 0 mm 2 mps 754 mmHg 56%
    02:00 +14°C° 0 mm 2 mps 754 mmHg 56%
    03:00 +13°C° 0 mm 2 mps 754 mmHg 57%
    04:00 +13°C° 0 mm 2 mps 754 mmHg 58%
    05:00 +13°C° 0 mm 1 mps 753 mmHg 58%
    06:00 +13°C° 0 mm 2 mps 753 mmHg 57%
    07:00 +13°C° 0 mm 2 mps 753 mmHg 56%
    08:00 +14°C° 0 mm 2 mps 754 mmHg 55%
    09:00 +16°C° 0 mm 3 mps 753 mmHg 48%
    10:00 +18°C° 0 mm 3 mps 753 mmHg 41%
    11:00 +20°C° 0 mm 4 mps 753 mmHg 35%
    12:00 +22°C° 0 mm 4 mps 753 mmHg 33%
    13:00 +23°C° 0 mm 5 mps 752 mmHg 32%
    14:00 +25°C° 0 mm 5 mps 752 mmHg 31%
    15:00 +23°C° 0 mm 4 mps 752 mmHg 33%
    16:00 +22°C° 0 mm 3 mps 752 mmHg 35%
    17:00 +21°C° 0 mm 2 mps 752 mmHg 37%
    18:00 +20°C° 0 mm 2 mps 752 mmHg 40%
    19:00 +20°C° 0 mm 1 mps 753 mmHg 42%
    20:00 +19°C° 0 mm 1 mps 753 mmHg 44%
    21:00 +19°C° 0 mm 1 mps 753 mmHg 46%
    22:00 +18°C° 0 mm 1 mps 753 mmHg 47%
    23:00 +18°C° 0 mm 1 mps 753 mmHg 48%

    28 October, Sunday

    Time Temperature Precipitation Wind Pressure Humidity
    00:00 +18°C° 0 mm 1 mps 753 mmHg 50%
    01:00 +16°C° 0 mm 1 mps 753 mmHg 52%
    02:00 +16°C° 0 mm 1 mps 753 mmHg 53%
    03:00 +16°C° 0 mm 1 mps 754 mmHg 55%
    04:00 +16°C° 0 mm 1 mps 754 mmHg 57%
    05:00 +15°C° 0 mm 1 mps 754 mmHg 58%
    06:00 +16°C° 0 mm 1 mps 754 mmHg 58%
    07:00 +16°C° 0 mm 1 mps 754 mmHg 58%
    08:00 +16°C° 0 mm 1 mps 754 mmHg 57%
    09:00 +19°C° 0 mm 1 mps 754 mmHg 51%
    10:00 +22°C° 0 mm 1 mps 755 mmHg 45%
    11:00 +24°C° 0 mm 1 mps 755 mmHg 39%
    12:00 +25°C° 0 mm 1 mps 754 mmHg 37%
    13:00 +26°C° 0 mm 2 mps 754 mmHg 34%
    14:00 +27°C° 0 mm 2 mps 753 mmHg 32%
    15:00 +26°C° 0 mm 2 mps 753 mmHg 35%
    16:00 +25°C° 0 mm 2 mps 753 mmHg 38%
    17:00 +24°C° 0 mm 2 mps 753 mmHg 41%
    18:00 +23°C° 0 mm 2 mps 753 mmHg 45%
    19:00 +21°C° 0 mm 3 mps 753 mmHg 50%
    20:00 +20°C° 0 mm 3 mps 754 mmHg 54%
    21:00 +19°C° 0 mm 3 mps 754 mmHg 59%
    22:00 +19°C° 0 mm 3 mps 754 mmHg 63%
    23:00 +18°C° 0 mm 3 mps 754 mmHg 67%

    29 October, Monday

    Time Temperature Precipitation Wind Pressure Humidity
    00:00 +17°C° 0 mm 2 mps 753 mmHg 70%
    01:00 +17°C° 0 mm 2 mps 753 mmHg 72%
    02:00 +16°C° 0 mm 2 mps 753 mmHg 74%
    03:00 +16°C° 0 mm 2 mps 753 mmHg 75%
    04:00 +16°C° 0 mm 2 mps 753 mmHg 76%
    05:00 +15°C° 0 mm 2 mps 753 mmHg 78%
    06:00 +15°C° 0 mm 2 mps 753 mmHg 76%
    07:00 +16°C° 0 mm 2 mps 753 mmHg 75%
    08:00 +16°C° 0 mm 2 mps 753 mmHg 73%
    09:00 +17°C° 0 mm 3 mps 753 mmHg 65%
    10:00 +19°C° 0 mm 3 mps 753 mmHg 56%
    11:00 +21°C° 0 mm 3 mps 752 mmHg 48%
    12:00 +22°C° 0 mm 4 mps 752 mmHg 44%
    13:00 +23°C° 0 mm 4 mps 752 mmHg 40%
    14:00 +25°C° 0 mm 4 mps 751 mmHg 36%
    15:00 +24°C° 0 mm 3 mps 751 mmHg 38%
    16:00 +24°C° 0 mm 2 mps 751 mmHg 41%
    17:00 +23°C° 0 mm 2 mps 751 mmHg 43%
    18:00 +21°C° 0 mm 2 mps 752 mmHg 46%
    19:00 +20°C° 0 mm 2 mps 752 mmHg 48%
    20:00 +21°C° 0 mm 1 mps 752 mmHg 51%
    21:00 +19°C° 0 mm 2 mps 752 mmHg 54%
    22:00 +19°C° 0 mm 2 mps 752 mmHg 57%
    23:00 +18°C° 0 mm 2 mps 752 mmHg 61%

    30 October, Tuesday

    Time Temperature Precipitation Wind Pressure Humidity
    00:00 +18°C° 0 mm 2 mps 752 mmHg 63%
    01:00 +18°C° 0 mm 1 mps 752 mmHg 65%
    02:00 +18°C° 0 mm 1 mps 752 mmHg 68%
    03:00 +18°C° 0 mm 1 mps 752 mmHg 70%
    04:00 +16°C° 0 mm 1 mps 752 mmHg 72%
    05:00 +16°C° 0 mm 1 mps 752 mmHg 74%
    06:00 +16°C° 0 mm 2 mps 751 mmHg 73%
    07:00 +17°C° 0 mm 2 mps 751 mmHg 73%
    08:00 +17°C° 0 mm 2 mps 751 mmHg 73%
    09:00 +19°C° 0 mm 3 mps 751 mmHg 66%
    10:00 +21°C° 0 mm 4 mps 751 mmHg 59%
    11:00 +23°C° 0 mm 4 mps 750 mmHg 53%
    12:00 +25°C° 0 mm 5 mps 750 mmHg 49%
    13:00 +26°C° 0 mm 5 mps 749 mmHg 44%
    14:00 +28°C° 0 mm 6 mps 749 mmHg 40%
    15:00 +27°C° 0 mm 6 mps 749 mmHg 42%
    16:00 +26°C° 0 mm 5 mps 749 mmHg 45%
    17:00 +25°C° 0 mm 5 mps 748 mmHg 47%
    18:00 +23°C° 0 mm 5 mps 748 mmHg 47%
    19:00 +23°C° 0 mm 6 mps 748 mmHg 47%
    20:00 +23°C° 0 mm 7 mps 748 mmHg 46%
    21:00 +22°C° 0.6 mm 7 mps 748 mmHg 49%
    22:00 +22°C° 0.6 mm 7 mps 748 mmHg 51%
    23:00 +21°C° 0.6 mm 8 mps 748 mmHg 53%
    Show more